Regional Weather Roundup
Issued by NWS Bismarck, ND

Home | Current Version | Previous Version | Text Only | Print | Product List | Glossary On
Versions: 1 2 3 4 5 6 7 8 9 10 11 12 13 14 15 16 17 18 19 20 21 22 23 24 25 26 27 28 29 30 31 32 33 34 35 36 37 38 39 40 41 42 43 44 45 46 47 48 49 50
000
ASUS43 KBIS 130520
RWRBIS

NWR BROADCAST TEXT
NATIONAL WEATHER SERVICE BISMARCK ND
1200 AM CDT SUN JUL 13 2014

NOTE: "FAIR" INDICATES FEW OR NO CLOUDS BELOW 12,000 FEET WITH NO
SIGNIFICANT WEATHER AND/OR OBSTRUCTIONS TO VISIBILITY.


CITY           SKY/WX    TMP DP  RH WIND       PRES   REMARKS
WILLISTON      CLEAR     63  52  67 NW8       30.10F
MINOT          CLEAR     63  48  58 W13       30.05R
MINOT AFB      NOT AVBL
BISMARCK       CLEAR     69  54  58 NW7       30.07R
DICKINSON      CLEAR     59  50  72 W5        30.13S
GARRISON         N/A     58  55  90 NW8       30.07R
HETTINGER ARPT CLEAR     58  55  90 W6        30.17R
JAMESTOWN      MOCLDY    60  54  80 NW3       30.01S
CARRINGTON     FAIR      57  57 100 W6        30.03S
CROSBY           N/A     55  55 100 W5        30.11S
HARVEY         FAIR      55  55 100 W7        30.03S
HAZEN          FAIR      59  54  82 SW3       30.09R
LINTON         FAIR      57  57 100 W5        30.05S
MANDAN         FAIR      63  54  72 NW7       30.09R
RUGBY          FAIR      55  52  88 W9        30.01S
STANLEY          N/A     57  55  94 N7        30.10S
TIOGA          FAIR      55  55 100 NW3       30.14R
WATFORD CITY   FAIR      61  54  77 SW3       30.10S
$$

CITY           SKY/WX    TMP DP  RH WIND       PRES   REMARKS
GRAND FORKS    CLEAR     54  52  93 W6        29.96R
GRAND FORKS AF NOT AVBL
DEVILS LAKE    CLEAR     61  54  77 NW7       29.98S
FARGO          MOCLDY    64  55  72 N8        29.96S
CANDO          FAIR      55  50  82 NW9       30.00S
CAVALIER       FAIR      57  55  94 SW3       29.95S FOG
GRAFTON        FAIR      57  57 100 W7        29.96S
GWINNER        CLEAR     63  57  82 CALM      30.01S
LANGDON        FAIR      50  48  93 SW8       29.97S
ROLLA          FAIR      55  45  67 NW10      30.01F
WALHALLA         N/A     55  55 100 SW5         N/A
$$

CITY           SKY/WX    TMP DP  RH WIND       PRES   REMARKS
ABERDEEN       PTCLDY    68  60  75 NW6       30.01S
MOBRIDGE       CLEAR     63  61  93 CALM      30.05R
BUFFALO          N/A     64  51  62 N13       30.12S
RAPID CITY     CLEAR     67  63  87 NW7       30.20R
GLASGOW        CLEAR     66  51  58 NE7       30.15
SIDNEY         CLEAR     63  48  59 W9        30.14F
WOLF POINT     CLEAR     63  48  58 NW3       30.14S
GLENDIVE       CLEAR     64  48  55 NW7       30.18F
MILES CITY     CLEAR     69  47  45 N6        30.18S
BAKER          CLEAR     63  51  65 CALM      30.21R
$$

CITY           SKY/WX    TMP DP  RH WIND       PRES   REMARKS
BILLINGS       PTCLDY    78  42  27 SE5       30.22S
GREAT FALLS    CLEAR     72  45  37 E9        30.22R
REGINA         CLEAR     52  46  82 NW8       30.12R
ESTEVAN        PTCLDY    54  48  82 NW8       30.09
$$



USA.gov is the U.S. government's official web portal to all federal, state and local government web resources and services.